EDT,Max TemperatureF,Mean TemperatureF,Min TemperatureF,Max Dew PointF,MeanDew PointF,Min DewpointF,Max Humidity, Mean Humidity, Min Humidity, Max Sea Level PressureIn, Mean Sea Level PressureIn, Min Sea Level PressureIn, Max VisibilityMiles, Mean VisibilityMiles, Min VisibilityMiles, Max Wind SpeedMPH, Mean Wind SpeedMPH, Max Gust SpeedMPH,PrecipitationIn, CloudCover, Events, WindDirDegrees
2011-10-1,,,,,,,,,,,,,,,,,,,,,,
2011-10-2,,,,,,,,,,,,,,,,,,,,,,
2011-10-3,,,,,,,,,,,,,,,,,,,,,,
2011-10-4,,,,,,,,,,,,,,,,,,,,,,
2011-10-5,73,63,53,52,45,37,88,51,35,30.28,30.12,30.05,10,10,10,20,11,25,0.00,0,,324
2011-10-6,66,54,41,39,34,28,81,47,24,30.38,30.33,30.28,10,10,10,13,7,16,0.00,0,,310
2011-10-7,62,53,44,45,39,37,87,59,39,30.48,30.42,30.33,10,10,10,12,6,16,0.00,0,,34
2011-10-8,75,60,46,52,47,43,87,65,38,30.52,30.48,30.42,10,10,9,9,5,,0.00,0,,261
2011-10-9,84,68,51,61,53,48,88,62,33,30.43,30.39,30.32,10,10,9,9,6,,0.00,0,,290
2011-10-10,82,68,55,61,54,50,88,66,35,30.30,30.25,30.17,10,10,9,8,5,,0.00,0,,313
2011-10-11,69,64,59,59,56,52,88,71,53,30.21,30.17,30.13,10,10,10,14,7,18,0.00,0,,61
2011-10-12,64,62,60,57,54,52,88,77,64,30.16,30.10,29.97,10,10,3,20,11,28,0.04,7,,70
2011-10-13,64,62,60,64,61,59,100,96,94,29.89,29.79,29.72,10,3,0,15,10,21,0.33,8,,51
2011-10-14,73,68,62,68,65,59,100,91,73,29.66,29.53,29.38,10,8,1,16,9,24,0.12,7,Thunderstorm,161
2011-10-15,69,60,50,48,42,37,82,56,31,29.73,29.66,29.59,10,10,10,26,12,36,0.00,1,,234
2011-10-16,68,59,50,41,38,36,58,48,33,29.96,29.87,29.76,10,10,10,21,9,28,0.00,1,,236
2011-10-17,68,62,57,48,41,32,72,50,26,29.83,29.76,29.65,10,10,10,16,10,26,0.00,2,,256
2011-10-18,69,60,50,50,44,30,94,62,24,29.90,29.86,29.81,10,10,9,7,5,,0.00,2,,194
2011-10-19,64,63,62,64,62,59,100,96,88,29.87,29.66,29.47,10,4,0,23,10,31,1.13,8,,66
2011-10-20,69,63,57,68,54,39,100,72,45,29.68,29.46,29.35,10,8,2,23,12,31,0.00,6,,201
2011-10-21,57,52,46,43,40,36,82,65,44,30.02,29.90,29.74,10,10,10,17,9,26,0.00,3,,244
2011-10-22,60,50,41,43,40,39,93,70,45,30.11,30.07,30.04,10,10,10,14,7,20,0.00,2,,275
2011-10-23,60,52,44,43,41,36,87,67,39,30.16,30.12,30.10,10,10,10,12,4,,0.00,4,,298
2011-10-24,62,52,42,48,44,39,93,75,52,30.15,30.08,29.99,10,10,9,10,4,16,0.00,1,,203
2011-10-25,62,54,46,48,40,32,93,63,32,30.09,30.04,29.98,10,10,10,23,9,32,0.00,0,,285
2011-10-26,64,54,44,50,44,37,82,66,52,30.06,29.91,29.78,10,10,4,13,5,,0.05,2,,236
2011-10-27,60,55,48,57,52,46,100,89,77,29.75,29.66,29.58,10,8,2,13,5,17,0.07,8,,250
2011-10-28,48,40,33,36,29,9,93,67,20,30.24,30.15,29.96,10,10,10,13,7,16,0.01,2,,345
2011-10-29,46,40,33,37,34,30,100,79,53,30.22,30.01,29.77,10,8,2,23,12,37,0.90,8,,29
2011-10-30,48,40,33,32,30,25,93,72,40,30.31,30.12,29.91,10,10,7,21,13,26,0.01,1,,304
2011-10-31,53,42,30,41,35,28,93,74,47,30.41,30.36,30.30,10,10,10,10,4,,0.00,0,,185